Regional Weather Roundup
Issued by NWS Little Rock, AR

Home | Current Version | Previous Version | Text Only | Print | Product List | Glossary On
Versions: 1 2 3 4 5 6 7 8 9 10 11 12 13 14 15 16 17 18 19 20 21 22 23 24 25 26 27 28 29 30 31 32 33 34 35 36 37 38 39 40 41 42 43 44 45 46 47 48 49 50
000
ASUS44 KLZK 302005
RWRLZK

WEATHER ROUNDUP FOR ARKANSAS
NATIONAL WEATHER SERVICE LITTLE ROCK AR
300 PM CDT SUN AUG 30 2015

NOTE: "FAIR" INDICATES FEW OR NO CLOUDS BELOW 12,000 FEET WITH NO
SIGNIFICANT WEATHER AND/OR OBSTRUCTIONS TO VISIBILITY.

ARZ001-003-010-029-302100-
NORTHWEST ARKANSAS

CITY           SKY/WX    TMP DP  RH WIND       PRES   REMARKS
FAYETTEVILLE   MOSUNNY   84  71  65 S9        30.02F HX  89
FORT SMITH     PTSUNNY   91  67  44 S5        29.96F HX  94
BENTONVILLE    MOSUNNY   88  66  48 S10       30.03F HX  90
ROGERS         PTSUNNY   85  71  63 SE10      30.02F HX  90
SILOAM SPGS    MOSUNNY   86  66  51 SE10      29.99F HX  88
HIGHFILL       MOSUNNY   87  71  58 SE10      30.01F HX  93
SPRINGDALE     PTSUNNY   86  70  58 S9        30.04F HX  90
$$

ARZ004-005-016-302100-
NORTH CENTRAL ARKANSAS

CITY           SKY/WX    TMP DP  RH WIND       PRES   REMARKS
BATESVILLE     MOSUNNY   91  70  49 SE7       30.00F HX  97
FLIPPIN        MOSUNNY   88  66  48 S5        30.00F HX  90
MTN HOME       PTSUNNY   86  68  54 S6        30.02F HX  89
$$

ARZ040-041-302100-
WEST CENTRAL ARKANSAS

CITY           SKY/WX    TMP DP  RH WIND       PRES   REMARKS
MENA           FAIR      91  64  40 SE3       30.01F HX  93
MOUNT IDA      SUNNY     91  66  43 VRB7      29.99F HX  93
$$

ARZ009-017-025-026-028-302100-
NORTHEAST ARKANSAS

CITY           SKY/WX    TMP DP  RH WIND       PRES   REMARKS
JONESBORO      SUNNY     87  66  49 SW3       30.01F HX  89
NEWPORT        SUNNY     90  72  55 VRB5      30.02F HX  97
WALNUT RIDGE   SUNNY     90  66  45 S5        30.01F HX  92
BLYTHEVILLE    MOSUNNY   87  71  58 S6        30.03F HX  93
$$

ARZ022-023-033-042-044-302100-
CENTRAL ARKANSAS

CITY           SKY/WX    TMP DP  RH WIND       PRES   REMARKS
LITTLE ROCK    MOSUNNY   95  62  33 VRB5      29.98F HX  96
N LITTLE ROCK  MOSUNNY   91  67  44 E6        29.98F HX  94
JACKSONVILLE   SUNNY     95  62  33 SW10G17   29.98F HX  95
SEARCY         SUNNY     94  69  44 S8        30.00F HX  99
HOT SPRINGS    MOSUNNY   92  64  39 SW9       30.00F HX  93
RUSSELLVILLE   MOSUNNY   92  67  43 VRB3      29.98F HX  95
$$

ARZ036-302100-
EAST ARKANSAS

CITY           SKY/WX    TMP DP  RH WIND       PRES   REMARKS
WEST MEMPHIS   MOSUNNY   87  70  56 SW6       30.01F HX  92
$$

ARZ050-053-066-070-073-302100-
SOUTHWEST ARKANSAS

CITY           SKY/WX    TMP DP  RH WIND       PRES   REMARKS
ARKADELPHIA    FAIR      96  66  37 SE6       29.99F HX  99
CAMDEN         SUNNY     93  64  38 S8        29.99F HX  95
TEXARKANA      MOSUNNY   92  66  42 S8        29.99F HX  94
EL DORADO      MOSUNNY   92  61  35 SW6       29.99F HX  92
DE QUEEN       MOSUNNY   94  65  38 S8        29.95F HX  96
$$

ARZ056-057-069-302100-
SOUTHEAST ARKANSAS

CITY           SKY/WX    TMP DP  RH WIND       PRES   REMARKS
PINE BLUFF     SUNNY     92  65  40 SE5       29.98F HX  94
STUTTGART      SUNNY     93  64  38 SW8       30.00F HX  95
MONTICELLO     MOSUNNY   95  63  34 E8        29.98F HX  96

$$





USA.gov is the U.S. government's official web portal to all federal, state and local government web resources and services.